Weather History for Race Rocks, BC

Change the Weather History Date:

Monday, December 16, 2013

  Actual Average Record
Temperature  
Mean Temperature 46 °F -  
Max Temperature 49 °F - - ()
Min Temperature 43 °F - - ()
Degree Days  
Heating Degree Days 19    
Moisture  
Dew Point 41 °F    
Average Humidity 85    
Maximum Humidity 93    
Minimum Humidity 65    
Precipitation  
Precipitation 0.00 in - - ()
Sea Level Pressure  
Sea Level Pressure 30.31 in    
Wind  
Wind Speed 11 mph ()    
Max Wind Speed 25 mph    
Max Gust Speed -    
T = Trace of Precipitation, MM = Missing Value Source: Averaged Metar Reports

Daily Weather History Graph

Daily Weather History Graph

Search for Another Location

Airport:

Trip Planner

Search our weather history database for the weather conditions in past years. The results will help you decide how hot, cold, wet, or windy it might be!

Date:

Astronomy

Dec. 16, 2013 Rise Set
Actual Time 7:59 AM PST 4:20 PM PST
Civil Twilight 7:22 AM PST 4:57 PM PST
Nautical Twilight 6:42 AM PST 5:36 PM PST
Astronomical Twilight 6:04 AM PST 6:15 PM PST
Moon 4:19 PM PST (12/16) 7:08 AM PST (12/16)
Length of Visible Light 9h 34m
Length of Day
8h 20m
Full, 100% of the Moon is Illuminated
Dec 16
Full
Dec 17
Full
Dec 25
Last Quarter
Jan 1
New
Jan 7
First Quarter

Hourly Weather History & Observations

Time (PST) Temp. Windchill Dew Point Humidity Pressure Visibility Wind Dir Wind Speed Gust Speed Precip Events Conditions
12:00 AM 46.0 °F 37.4 °F 41.5 °F 84% 30.32 in - West 25.3 mph - N/A   Unknown
1:00 AM 46.4 °F 37.9 °F 41.4 °F 83% 30.33 in - West 25.3 mph - N/A   Unknown
2:00 AM 46.2 °F 37.9 °F 42.1 °F 85% 30.34 in - West 24.2 mph - N/A   Unknown
3:00 AM 45.9 °F 37.8 °F 41.7 °F 85% 30.36 in - West 21.9 mph - N/A   Unknown
4:00 AM 45 °F - 43 °F 89% 30.35 in - West 17.3 mph - -  
4:00 AM 45.1 °F 37.9 °F 42.8 °F 91% 30.35 in - West 17.3 mph - N/A   Unknown
5:00 AM 44.8 °F 37.7 °F 42.3 °F 91% 30.33 in - West 16.1 mph - N/A   Unknown
6:00 AM 44.4 °F 37.9 °F 42.1 °F 91% 30.33 in - West 13.8 mph - N/A   Unknown
7:00 AM 44.1 °F 39.0 °F 41.7 °F 91% 30.35 in - West 9.2 mph - N/A   Unknown
8:00 AM 44.6 °F 40.7 °F 41.4 °F 88% 30.35 in - WSW 6.9 mph - N/A   Unknown
9:00 AM 44.6 °F 43.1 °F 42.1 °F 91% 30.36 in - South 3.5 mph - N/A   Unknown
10:00 AM 44 °F - 39 °F 76% 30.37 in - South 6.9 mph - -  
10:00 AM 44.1 °F 40.1 °F 38.8 °F 82% 30.37 in - South 6.9 mph - N/A   Unknown
11:00 AM 46.6 °F - 41.0 °F 81% 30.36 in - SE 4.6 mph - N/A   Unknown
12:00 PM 45.9 °F 44.6 °F 39.9 °F 80% 30.36 in - NW 3.5 mph - N/A   Unknown
1:00 PM 49.6 °F - 38.3 °F 65% 30.33 in - Calm Calm - N/A   Unknown
2:00 PM 47.5 °F - 40.3 °F 76% 30.33 in - East 3.5 mph - N/A   Unknown
3:00 PM 47.3 °F - 37.6 °F 69% 30.31 in - Calm Calm - N/A   Unknown
4:00 PM 45 °F - 38 °F 70% 30.30 in - North 2.3 mph - -  
4:00 PM 45.3 °F - 38.5 °F 77% 30.30 in - North 2.3 mph - N/A   Unknown
5:00 PM 45.0 °F 40.6 °F 41.9 °F 89% 30.29 in - North 8.1 mph - N/A   Unknown
6:00 PM 44.8 °F 41.6 °F 42.4 °F 91% 30.27 in - North 5.8 mph - N/A   Unknown
7:00 PM 44.6 °F - 42.3 °F 91% 30.24 in - North 2.3 mph - N/A   Unknown
8:00 PM 44.2 °F - 41.9 °F 91% 30.23 in - North 1.2 mph - N/A   Unknown
9:00 PM 44.1 °F - 42.1 °F 93% 30.22 in - NNW 1.2 mph - N/A   Unknown
10:00 PM 44 °F - 42 °F 89% 30.20 in - East 5.8 mph - -  
10:00 PM 43.9 °F 40.5 °F 41.9 °F 93% 30.20 in - East 5.8 mph - N/A   Unknown
11:00 PM 43.9 °F 41.3 °F 41.9 °F 93% 30.18 in - East 4.6 mph - N/A   Unknown